Location: Unspecified
(0.0000°N, 0.0000°E)
Time: 11:45:30
(UTC+00:00)

N. Korean satellite - Pass Details

Date: 20 May 2017
Orbit: 462 x 515 km, 97.2° (Epoch: 22 August)

Event Time Altitude Azimuth Distance (km) Brightness Sun altitude
Rises 18:44:27 0° 173° (S) 2,528 9.9 -11.2°
Reaches altitude 10° 18:46:30 10° 175° (S) 1,656 9.0 -11.7°
Maximum altitude 18:50:02 70° 259° (W) 521 6.8 -12.5°
Drops below altitude 10° 18:53:38 10° 343° (NNW) 1,679 9.8 -13.4°
Sets 18:55:43 0° 345° (NNW) 2,568 10.8 -13.9°
